Kuchera_Ratio
0.0 0.0 0.0 0.0 0.0 0.0 0.0 0.0 0.0 0.0 0.0 0.0 0.0 0.0 0.0 0.0 0.0 0.0 0.0 0.0 0.0 0.0 0.0 0.0 0.0 0.0 0.0
0.0 0.0 0.0 0.0 0.0 0.0 0.0 0.0 0.0 0.0 0.0 0.0 0.0 0.0 0.0 0.0 0.0 0.0 0.0 0.0 0.0 0.0 0.0 0.0 0.0 0.0 0.0
0.0 0.0 0.0 0.0 0.0 0.0 0.0 0.0 0.0 0.0 0.0 0.0 0.0 0.0 0.0 0.0 0.0 0.0 0.0 0.0 0.0 0.0 0.0 0.0 0.0 0.0 0.0
0.0 0.0 0.0 0.0 0.0 0.6 1.5 1.1 1.6 0.0 0.0 0.0 0.0 0.0 0.0 0.0 0.0 0.0 0.0 0.0 0.0 0.0 0.0 0.0 0.0 0.0 0.0
0.0 0.0 1.9 1.6 2.7 1.4 2.5 3.0 4.1 3.4 1.0 0.3 0.0 0.0 0.0 0.0 0.0 0.0 0.0 0.0 0.0 0.0 0.0 0.0 0.0 0.0 0.0
1.6 3.6 4.3 3.4 1.7 3.3 4.0 5.2 6.6 3.0 0.0 0.0 0.0 0.0 0.0 0.0 0.0 0.0 0.0 0.0 0.0 0.0 0.0 0.0 0.0 0.0 0.0
2.9 3.1 1.6 0.2 0.0 0.2 1.6 2.6 4.1 1.7 0.5 0.2 0.0 0.0 0.0 0.0 0.0 0.0 0.0 0.0 0.0 0.0 0.0 0.0 0.0 0.0 0.0
0.0 0.0 0.0 0.0 0.0 0.0 0.0 4.2 1.8 0.0 0.0 0.0 0.0 0.0 0.0 0.0 0.0 0.0 0.0 0.0 0.0 0.0 0.0 0.0 0.0 0.0 0.0
0.9 0.9 0.1 0.0 0.0 0.0 0.7 0.6 0.6 1.3 1.3 1.6 0.0 0.0 0.0 0.0 0.0 0.0 0.0 0.0 0.0 0.0 0.0 0.0 0.0 0.0 0.0
0.1 0.5 0.2 0.7 1.2 0.9 1.2 3.6 4.4 4.7 3.9 5.8 3.4 3.4 4.2 0.0 0.0 0.0 0.0 0.2 0.0 0.0 0.3 0.3 0.2 0.0 0.0
1.4 1.7 1.7 2.5 2.9 2.8 3.0 4.8 6.7 7.8 5.2 5.2 6.9 4.8 6.1 5.6 0.1 0.0 0.0 0.0 0.0 0.0 0.1 0.7 1.2 1.7 1.8
3.6 5.3 6.8 7.2 6.0 5.5 5.4 5.2 4.9 7.6 5.6 6.1 9.7 9.4 10.1 8.8 7.9 2.9 1.0 0.5 1.2 2.6 2.3 1.3 0.7 1.0 1.5
7.3 8.3 8.2 7.6 6.8 6.8 5.9 5.6 5.6 6.1 6.0 7.3 8.8 9.5 9.7 11.1 11.1 9.1 8.6 4.6 2.2 4.5 4.2 4.7 4.6 3.8 5.6
7.3 7.5 6.9 8.8 10.2 8.7 10.2 8.9 9.2 9.1 7.3 7.7 9.7 10.6 11.0 10.0 10.9 10.1 7.6 11.6 5.7 5.1 6.8 6.2 3.4 2.2 3.4
8.9 9.8 10.4 10.4 11.3 9.5 11.0 10.5 12.1 12.3 11.5 9.7 9.6 10.4 10.7 12.6 12.0 9.5 9.7 9.1 6.9 8.0 9.3 9.9 5.9 2.7 2.5
11.1 11.1 11.9 12.1 12.2 11.5 11.0 12.0 12.7 12.6 12.7 12.6 12.4 11.2 9.5 10.6 10.2 11.0 9.9 10.0 8.6 8.8 9.1 11.8 10.2 3.5 2.3
12.2 12.7 12.7 12.8 12.5 12.6 12.5 12.6 12.9 12.7 12.7 13.0 13.6 13.8 14.5 14.9 9.0 8.2 12.7 11.2 11.2 11.5 9.2 10.2 11.5 8.7 5.2